Location: Newark
(51.3656°N, 14.2631°E)
Time: 20:00:44
(UTC+00:00)

N. Korean satellite - Visible Passes

Search period start: 27 February 2021 00:00
Search period end: 09 March 2021 00:00
Orbit: 451 x 503 km, 97.2° (Epoch: 27 February)

Date Brightness Start Highest point End Pass type
(mag) Time Alt. Az. Time Alt. Az. Time Alt. Az.
27 Feb 8.4 04:04:24 10° NNE 04:07:34 32° E 04:10:46 10° SSE visible
28 Feb 9.6 03:38:16 10° NE 03:40:39 17° E 03:43:04 10° SE visible
28 Feb 6.9 05:10:51 10° N 05:14:10 41° WNW 05:17:31 10° SW visible
01 Mar 6.4 04:43:58 10° NNE 04:47:29 86° WNW 04:51:02 10° SSW visible
02 Mar 7.7 04:17:18 10° NNE 04:20:43 45° E 04:24:08 10° S visible
03 Mar 9.1 03:50:56 10° NE 03:53:50 23° E 03:56:45 10° SSE visible
04 Mar 9.9 03:25:12 10° ENE 03:26:52 13° E 03:28:32 10° ESE visible
04 Mar 6.5 04:57:02 10° N 05:00:32 60° WNW 05:04:02 10° SSW visible
05 Mar 7.0 04:30:15 10° NNE 04:33:47 66° ESE 04:37:21 10° S visible
06 Mar 8.5 04:03:42 10° NNE 04:06:56 32° E 04:10:12 10° SSE visible
07 Mar 9.6 03:37:31 10° NE 03:40:00 17° E 03:42:28 10° SE visible
08 Mar 6.5 04:43:12 10° NNE 04:46:47 87° WNW 04:50:24 10° SSW visible
